Regional Weather Roundup
Issued by NWS

Home | Current Version | Previous Version | Text Only | Print | Product List | Glossary On
Versions: 1 2 3 4 5 6 7 8 9 10 11 12 13 14 15 16 17 18 19 20 21 22 23 24 25 26 27 28 29 30 31 32 33 34 35 36 37 38 39 40 41 42 43 44 45 46 47 48 49 50
000
ASUS44 KLUB 030401
RWRTX
WEST TEXAS WEATHER ROUNDUP
NATIONAL WEATHER SERVICE LUBBOCK TX
1100 PM CDT THU JUL 02 2015

NOTE: "FAIR" INDICATES FEW OR NO CLOUDS BELOW 12,000 FEET WITH NO
SIGNIFICANT WEATHER AND/OR OBSTRUCTIONS TO VISIBILITY.

TXZ004-006>008-010-012-014-016-OKZ002-030500-
TEXAS PANHANDLE/OKLAHOMA PANHANDLE

CITY           SKY/WX    TMP DP  RH WIND       PRES   REMARKS
AMARILLO       MOCLDY    68  59  73 E15G22    30.05R
BORGER         CLOUDY    71  67  87 SE8       30.03R
CANADIAN         N/A     69  68  95 CALM      29.99R
DALHART        CLOUDY    73  63  70 E13       30.10R
DUMAS          CLOUDY    72  63  73 E12       30.08R
GUYMON         MOCLDY    71  65  81 E3        30.04R
$$

TXZ026-029-035-045-048-030500-
SOUTHERN PANHANDLE/SOUTH PLAINS/ROLLING PLAINS

CITY           SKY/WX    TMP DP  RH WIND       PRES   REMARKS
CHILDRESS      MOCLDY    80  68  66 S5        29.95R
LUBBOCK        CLOUDY    76  62  62 SE8       30.00S
$$

TXZ052-054-060>062-072-078-127-140-154-169-030500-
PERMIAN BASIN/CONCHO VALLEY/BIG COUNTRY/EDWARDS PLATEAU

CITY           SKY/WX    TMP DP  RH WIND       PRES   REMARKS
ABILENE        PTCLDY    78  63  59 SE7       29.96R
BIG SPRING     MOCLDY    80  62  55 SE9       30.02R
JUNCTION       CLEAR     78  67  68 SE10      29.99R
MIDLAND        PTCLDY    78  64  61 SE14      29.99R
ODESSA         PTCLDY    78  62  57 SE14      30.00R
SAN ANGELO     CLEAR     76  66  71 SE7       29.96R
SWEETWATER     MOCLDY    78  64  61 S8        30.01R
WINK           PTCLDY    81  62  52 SE12      29.96R
$$

TXZ055-058-074-075-080-082-030500-
FAR WEST/SOUTHWEST MOUNTAINS/TRANS PECOS

CITY           SKY/WX    TMP DP  RH WIND       PRES   REMARKS
ALPINE         CLEAR     73  61  66 S10       30.11R
DRYDEN           N/A     81  63  54 MISG      29.94R
EL PASO        MOCLDY    91  51  25 E14       29.94R
FORT STOCKTON  CLEAR     76  63  64 SE15      29.98R
GUADALUPE PASS PTCLDY    74  50  42 NE26      30.11R
MARFA          CLEAR    N/A N/A N/A E8        30.10R
$$

TXZ014-016-019-021>030-083-030500
TEXAS TECH WEST TEXAS MESONET/TEXAS PANHANDLE/NORTHERN SOUTH PLAINS

CITY           SKY/WX    TMP DP  RH WIND       PRES   REMARKS
ABERNATHY 5ENE   N/A     73  63  69 SE6       30.02R
AMARILLO 9NNE    N/A     71  64  76 E10       30.04R
AMARILLO 7SSE    N/A     72  62  70 NE17      30.07R
AMHERST 1NE      N/A     74  61  62 S6        30.02F
BOOTLEG 11WNW    N/A     72  61  67 SE6       30.11R
CANADIAN 6E      N/A     68  66  94 N3        29.97S
CAPROCK CYN SP   N/A     76  65  68 SW7       29.97R
CHILDRESS 2NNE   N/A     77  70  77 SE3       29.94R
CLAUDE 12SW      N/A     71  58  63 N22       30.06R
DIMMITT 2NE      N/A     73  61  65 S8        30.04F
FLOYDADA 2NNE    N/A     75  62  62 S8        30.00S
FRIONA 2NE       N/A     74  61  65 S6        30.06S
GOODLETT 3W      N/A     79  67  68 S2        29.91R
HART 3N          N/A     75  61  62 S6        30.03S
HEREFORD 2NW     N/A     75  62  64 S5        30.04S
MCLEAN 1E        N/A     69  67  93 E6        30.01R
MEMPHIS 1NE      N/A     76  67  74 N25       30.00R
MULESHOE 2SSW    N/A     69  62  78 SW2       30.04S
OLTON 6S         N/A     72  62  71 SE6       30.01F
PALO DURO SP     N/A     77  64  65 NE16      30.07R
PAMPA 2E         N/A     69  65  88 SW6       30.02S
PLAINVIEW 1S     N/A     75  64  67 S8        30.01R
SILVERTON 7ESE   N/A     72  63  74 S5        30.00R
TULIA 2ENE       N/A     73  63  68 S7        30.02R
TURKEY 2WSW      N/A     78  67  69 S8        29.95R
UMBARGER 3NNE    N/A     74  65  71 SE3       30.05R
$$

TXZ033>036-039>041-045>048-030500
TEXAS TECH WEST TEXAS MESONET/SOUTH PLAINS

CITY           SKY/WX    TMP DP  RH WIND       PRES   REMARKS
AIKEN 3WSW       N/A     73  64  73 S6        30.02S
ANDREWS 2NE      N/A     77  62  60 E7        30.00S
ANTON 6SSW       N/A     76  63  63 SE7       30.01S
BROWNFIELD 2S    N/A     78  59  51 SE8       30.01R
DENVR CTY 7WNW   N/A     76  57  51 E5        30.02R
GAIL 2ESE        N/A     78  65  64 S8        29.98R
LAMESA 2SE       N/A     78  63  60 SE8       30.01R
LEVELLAND 4S     N/A     76  60  57 SE6       30.02R
LUBBOCK 3WNW     N/A     78  60  53 SE6       30.00S
MORTON 1ENE      N/A     73  64  72 SE3       30.03S
ODONNELL 1N      N/A     77  62  58 SE7       30.00S
PLAINS 3N        N/A     76  58  52 SE7       30.03R
RALLS 1SE        N/A     74  63  66 S6        30.01S
REESE CENTER     N/A     75  61  61 SE8       30.01S
SEAGRAVES 1SW    N/A     79  60  53 SE8       30.01R
SEMINOLE 2NNE    N/A     78  61  55 SE10      30.00S
SLATON 2NE       N/A     74  62  67 SE6       30.00S
SNYDER 3E        N/A     79  64  61 S12       29.98S
SUNDOWN 8SW      N/A     72  60  64 SE7       30.03R
TAHOKA 3NNE      N/A     75  62  64 SE7       29.99F
WOLFFORTH 6SSW   N/A     77  61  58 SE7       30.01S
$$

TXZ031-032-036>038-042>044-030500-
TEXAS TECH WEST TEXAS MESONET/ROLLING PLAINS

CITY           SKY/WX    TMP DP  RH WIND       PRES   REMARKS
ASPERMONT 3NE    N/A     80  65  61 S6        29.94R
FLUVANNA 3WNW    N/A     78  63  59 SE9       29.99R
GRAHAM 5SSW      N/A     79  63  59 SE9       29.99S
GUTHRIE 10WSW    N/A     81  65  59 S9        29.93S
HASKELL 1NW      N/A     83  60  45 S7        29.92S
JAYTON 1SSE      N/A     79  66  64 S5        29.94S
KNOX CITY 3NW    N/A     83  64  52 S7        29.91S
LK A HENRY 1NW   N/A     80  65  58 S7        29.96S
NORTHFIELD 1S    N/A     79  68  69 S9        29.93R
ODELL 4ENE       N/A     83  68  60 SE6       29.91S
PADUCAH 10SW     N/A     76  66  71 S7        29.92F
POST 1NE         N/A     79  64  59 S7        29.97F
RRING SPRGS 3N   N/A     73  66  78 S7        29.97R
SEYMOUR 3NW      N/A     84  63  49 SE9       29.91R
SPUR 1W          N/A     78  65  65 SE3       29.95S
WEINERT 2NNE     N/A     81  66  58 S7        29.92S
WHITE RVR 6NE    N/A     77  64  63 S3        29.97S
$$

TXZ052-054-060>062-072-078-127-140-154-169-030500-
TEXAS TECH WEST TEXAS MESONET/PERMIAN BASIN/
CONCHO VALLEY/BIG COUNTRY/EDWARDS PLATEAU

CITY           SKY/WX    TMP DP  RH WIND       PRES   REMARKS
COYANOSA 2N      N/A     79  64  58 SE14      29.96R
JUNCTION 1SSW    N/A     77  68  73 S9        29.99R
MERTZON 3NNE     N/A     72  67  84 S2        29.99R
SAN ANGELO 7NW   N/A     75  65  69 CALM      29.97R
STRLNG CT 4WSW   N/A     76  64  66 SE3       30.00R
ST LAWRNCE 5SW   N/A     74  64  70 SE6       30.00R
SWEETWATR 11SW   N/A     74  65  73 S6        30.00R
WALL 1E          N/A     79  63  58 SE7       29.98R
$$

TXZ055-058-074-075-080-082-030500-
TEXAS TECH WEST TEXAS MESONET/FAR WEST/SOUTHWEST MOUNTAINS/TRANS PECOS

CITY           SKY/WX    TMP DP  RH WIND       PRES   REMARKS
PRSMN GAP BBNP   N/A     79  64  61 N16       29.94R
$$


USA.gov is the U.S. government's official web portal to all federal, state and local government web resources and services.